Location: Unspecified
(49.2170°N, 0.0000°E)
Time: 18:41:18
(UTC+00:00)

A-11 Canister half - Pass Details

Date: 29 January 2021
Orbit: 1516 x 1684 km, 47.2° (Epoch: 05 March)

Event Time Altitude Azimuth Distance (km) Brightness Sun altitude
Rises 21:08:25 0° 259° (W) 4,746 12.2 -41.4°
Reaches altitude 10° 21:11:30 10° 259° (WSW) 3,742 11.5 -41.8°
Enters shadow 21:17:57 49° 250° (WSW) 1,900 9.5 -42.8°
